Regional Weather Roundup
Issued by NWS

Home | Current Version | Previous Version | Text Only | Print | Product List | Glossary On
Versions: 1 2 3 4 5 6 7 8 9 10 11 12 13 14 15 16 17 18 19 20 21 22 23 24 25 26 27 28 29 30 31 32 33 34 35 36 37 38 39 40 41 42 43 44 45 46 47 48 49 50
000
ASUS45 KBOU 271907
RWRCO

WEATHER ROUNDUP FOR COLORADO
NATIONAL WEATHER SERVICE DENVER/BOULDER CO
100 PM MDT MON APR 27 2015

NOTE: "FAIR" INDICATES FEW OR NO CLOUDS BELOW 12000 FEET WITH NO
SIGNIFICANT WEATHER AND/OR OBSTRUCTIONS TO VISIBILITY.

COZ001>005-013-030-031-272000-
...NORTHWEST COLORADO...

CITY           SKY/WX    TMP DP  RH WIND       PRES   REMARKS
CRAIG          PTSUNNY   55  39  54 W9        30.19S
HAYDEN         MOSUNNY   54  34  47 W6        30.17F
MEEKER         CLOUDY    48  40  73 W9        30.20S
MOUNT WERNER   NOT AVBL
STEAMBOAT SPGS CLOUDY    53  36  53 NW8       30.16S
WALDEN         PTSUNNY   46  28  49 CALM      30.21F
$$

COZ006>008-011-272000-
...WEST CENTRAL VALLEYS...

CITY           SKY/WX    TMP DP  RH WIND       PRES   REMARKS
GRAND JUNCTION PTSUNNY   60  40  47 NW8       30.11F
MONTROSE       MOSUNNY   56  41  57 NW8       30.14F
EAGLE          PTSUNNY   55  34  44 CALM      30.15F
RIFLE          MOSUNNY   59  36  42 VRB3      30.12F
DELTA          SUNNY     59  43  54 MISG      30.12F
NUCLA          MOSUNNY   61  34  36 NE13      30.13F
$$

COZ017>023-064>068-272000-
...SOUTHWEST COLORADO...

CITY           SKY/WX    TMP DP  RH WIND       PRES   REMARKS
DURANGO        MOSUNNY   58  29  33 VRB7      30.08F
CORTEZ         PTSUNNY   60  37  42 VRB6      30.07F
PAGOSA SPRINGS MOSUNNY   56  23  28 NE7G18    30.10F
TELLURIDE      CLOUDY    47  29  50 W5        30.18S
WOLF CREEK PAS NOT AVBL
$$

COZ009-010-012-014-032>034-037-058>063-272000-
...CENTRAL COLORADO...

CITY           SKY/WX    TMP DP  RH WIND       PRES   REMARKS
ASPEN          PTSUNNY   52  31  44 N8        30.14F
BUENA VISTA    CLOUDY    46  31  56 NE8       30.22S
COPPER MTN     CLOUDY    36  27  69 E6        30.31R
BERTHOUD PASS  SNOW      25  16  68 E18G25    30.33S VSB<1/4 WCI  11
COTTONWOOD PAS CLOUDY    37  32  81 SE8       30.26S
GUNNISON       MOSUNNY   54  27  35 E3        30.15F
KREMMLING      PTSUNNY   54  30  40 N3        30.17F
LEADVILLE      CLOUDY    40  25  55 CALM      30.23S
MONARCH PASS   CLOUDY    28  27  93 MISG      30.35R
SALIDA         CLOUDY    45  37  72 SE12G18   30.29S
SUNLIGHT       CLOUDY    37  32  81 CALM      30.30S
WILKERSON PASS FOG      N/A N/A N/A NE6       30.32R VSB 1/4
$$

COZ069>075-272000-
...SAN LUIS VALLEY/SANGRE DE CRISTO MOUNTAINS...

CITY           SKY/WX    TMP DP  RH WIND       PRES   REMARKS
ALAMOSA        CLOUDY    49  27  42 E9        30.14S
LA VETA PASS   SNOW      27  27 100 MISG      30.23S VSB 1/4
SAGUACHE       MOSUNNY   50  30  46 E13G18    30.16S
$$

COZ035-036-038>040-272000-
...NORTHERN COLORADO FRONT RANGE...

CITY           SKY/WX    TMP DP  RH WIND       PRES   REMARKS
DENVER INTL AP CLOUDY    42  39  89 N8        30.28R
DMNS CITY PARK   N/A     44  38  80 NE6       30.27F
AURORA         CLOUDY    41  41 100 N7        30.28S
FRONT RANGE AP CLOUDY    45  41  87 N8        30.28S FOG
ERIE MUNI ARPT CLOUDY    44  40  85 N6        30.28F
BOULDER MUN AP CLOUDY    45  39  81 CALM      30.28S
CENTENNIAL     CLOUDY    41  38  89 N8        30.28R
BROOMFIELD     CLOUDY    45  39  81 N6        30.28S
FORT COLLINS   PTSUNNY   48  39  71 NE6       30.30S
LONGMONT       CLOUDY    50  41  72 NE5       30.30F
$$

COZ041-046-047-076>085-087-088-272000-
...PIKES PEAK/PALMER DIVIDE AND SOUTHERN FOOTHILLS...

CITY           SKY/WX    TMP DP  RH WIND       PRES   REMARKS
COLO. SPRINGS  CLOUDY    43  36  76 NW10      30.25S
A. F. ACADEMY  CLOUDY    40  37  87 N14       30.26R
ELLICOTT       CLOUDY   N/A N/A N/A NE20      30.24R
FALCON         CLOUDY    38  35  89 N15       30.26S
FORT CARSON    CLOUDY    44  37  74 N14       30.23S
LIMON          CLOUDY    47  35  63 NE15      30.24F
MONUMENT HILL  RAIN      36  34  93 N9        30.26S
TRINIDAD       LGT RAIN  39  37  92 N16G25    30.21R FOG
$$

COZ042>045-048>051-090-091-272000-
...NORTHEAST COLORADO...

CITY           SKY/WX    TMP DP  RH WIND       PRES   REMARKS
GREELEY ARPT   CLOUDY    43  37  81 N3        30.30S
AKRON          CLOUDY    49  35  58 NE9       30.25F
BURLINGTON     SUNNY     53  33  46 NE20G26   30.21F
WRAY           PTSUNNY   57  34  41 N14G20    30.24F
STERLING       CLOUDY    52  37  58 NE5       30.26S
HOLYOKE        PTSUNNY   59  34  38 E8        30.25S
FORT MORGAN    CLOUDY    47  39  75 N6        30.28S
$$

COZ086-089-092>099-272000-
...SOUTHEAST COLORADO...

CITY           SKY/WX    TMP DP  RH WIND       PRES   REMARKS
PUEBLO         CLOUDY    46  39  76 E10       30.24S
LA JUNTA       PTSUNNY   55  38  52 NE20      30.19F
LAMAR          PTSUNNY   56  34  43 NE22G29   30.15F
SPRINGFIELD      N/A     46  35  65 NE28G35   30.12S
$$


USA.gov is the U.S. government's official web portal to all federal, state and local government web resources and services.